| time (UTC) | temp F | wind direction | speed knots | gust knots | rain 1hr in | rain 24hr in | rain mn in | humidity % | barometer mb |
| 20260902193206 | 60 | 146 | 0.0 | 0.9 | 0.02 | 0.22 | 0.22 | 88 | 1006.6 |
| 20260902192702 | 60 | 146 | 0.0 | 0.9 | 0.02 | 0.22 | 0.22 | 88 | 1006.7 |
| 20260902192420 | 60 | 123 | 0.0 | 0.9 | 0.02 | 0.22 | 0.22 | 88 | 1006.7 |
| 20260902191702 | 60 | 102 | 0.0 | 0.9 | 0.02 | 0.22 | 0.22 | 89 | 1006.6 |
| 20260902191200 | 59 | 114 | 0.0 | 0.9 | 0.02 | 0.22 | 0.22 | 89 | 1006.6 |
| 20260902190658 | 59 | 152 | 0.0 | 0.9 | 0.02 | 0.22 | 0.22 | 90 | 1006.6 |
| 20260902190423 | 59 | 115 | 0.9 | 0.9 | 0.02 | 0.21 | 0.21 | 90 | 1006.6 |
| 20260902185700 | 59 | 111 | 0.9 | 0.9 | 0.02 | 0.21 | 0.21 | 90 | 1006.6 |
| 20260902185159 | 59 | 113 | 0.9 | 0.9 | 0.02 | 0.21 | 0.21 | 91 | 1006.7 |
| 20260902184658 | 59 | 97 | 0.9 | 0.9 | 0.02 | 0.21 | 0.21 | 91 | 1006.7 |
| 20260902184158 | 59 | 114 | 0.9 | 0.9 | 0.02 | 0.21 | 0.21 | 90 | 1006.5 |
| 20260902183659 | 59 | 127 | 0.9 | 0.9 | 0.01 | 0.20 | 0.20 | 91 | 1006.6 |
| 20260902183419 | 59 | 118 | 0.9 | 0.9 | 0.02 | 0.20 | 0.20 | 90 | 1006.8 |
| 20260902182656 | 59 | 151 | 0.0 | 0.9 | 0.04 | 0.20 | 0.20 | 90 | 1006.8 |
| 20260902182152 | 59 | 106 | 0.0 | 0.9 | 0.05 | 0.20 | 0.20 | 90 | 1006.7 |
| 20260902181652 | 59 | 111 | 0.9 | 0.9 | 0.06 | 0.20 | 0.20 | 90 | 1006.7 |
| 20260902181155 | 59 | 137 | 0.9 | 0.9 | 0.09 | 0.20 | 0.20 | 90 | 1006.7 |
| 20260902180654 | 59 | 116 | 0.9 | 0.9 | 0.11 | 0.20 | 0.20 | 90 | 1006.9 |
| 20260902180153 | 59 | 101 | 0.9 | 0.9 | 0.12 | 0.19 | 0.19 | 90 | 1006.8 |
| 20260902175650 | 58 | 118 | 0.9 | 0.9 | 0.14 | 0.19 | 0.19 | 89 | 1006.8 |
| 20260902175150 | 58 | 79 | 0.9 | 0.9 | 0.15 | 0.19 | 0.19 | 90 | 1006.8 |
| 20260902174912 | 58 | 114 | 0.9 | 0.9 | 0.15 | 0.19 | 0.19 | 90 | 1006.7 |
| 20260902174411 | 58 | 104 | 0.9 | 5.2 | 0.15 | 0.19 | 0.19 | 91 | 1006.7 |
| 20260902173647 | 58 | 96 | 1.7 | 5.2 | 0.15 | 0.19 | 0.19 | 90 | 1006.9 |
| 20260902173133 | 58 | 86 | 0.9 | 4.3 | 0.14 | 0.18 | 0.18 | 90 | 1007.1 |
| 20260902172622 | 58 | 110 | 2.6 | 6.1 | 0.12 | 0.16 | 0.16 | 89 | 1007.0 |
| 20260902172112 | 58 | 139 | 1.7 | 6.1 | 0.11 | 0.15 | 0.15 | 89 | 1006.9 |
| 20260902171603 | 58 | 119 | 0.9 | 4.3 | 0.10 | 0.13 | 0.14 | 89 | 1006.9 |
| 20260902171101 | 58 | 190 | 1.7 | 7.0 | 0.08 | 0.11 | 0.11 | 88 | 1007.0 |
| 20260902170601 | 58 | 152 | 2.6 | 7.0 | 0.05 | 0.08 | 0.08 | 88 | 1007.1 |
| 20260902170318 | 58 | 224 | 2.6 | 6.1 | 0.03 | 0.06 | 0.07 | 88 | 1007.0 |
| 20260902165558 | 58 | 205 | 2.6 | 5.2 | 0.03 | 0.05 | 0.05 | 87 | 1006.9 |
| 20260902165056 | 58 | 182 | 3.5 | 6.1 | 0.03 | 0.04 | 0.04 | 87 | 1006.8 |
| 20260902164554 | 59 | 208 | 3.5 | 7.0 | 0.04 | 0.04 | 0.04 | 86 | 1006.7 |
| 20260902164045 | 59 | 160 | 3.5 | 7.0 | 0.04 | 0.04 | 0.04 | 85 | 1006.7 |
| 20260902163543 | 59 | 149 | 2.6 | 6.1 | 0.04 | 0.04 | 0.04 | 85 | 1006.7 |
| 20260902163042 | 59 | 158 | 2.6 | 5.2 | 0.04 | 0.04 | 0.04 | 85 | 1006.6 |
| 20260902162542 | 59 | 137 | 4.3 | 11.3 | 0.04 | 0.04 | 0.04 | 84 | 1006.6 |
| 20260902162307 | 59 | 133 | 4.3 | 11.3 | 0.04 | 0.04 | 0.04 | 83 | 1006.6 |
| 20260902161539 | 59 | 154 | 3.5 | 7.8 | 0.03 | 0.03 | 0.03 | 85 | 1006.7 |
| 20260902161039 | 58 | 189 | 3.5 | 9.6 | 0.03 | 0.03 | 0.03 | 84 | 1006.7 |
| 20260902160759 | 59 | 149 | 4.3 | 9.6 | 0.03 | 0.03 | 0.03 | 83 | 1006.7 |
| 20260902160037 | 59 | 165 | 3.5 | 7.0 | 0.03 | 0.03 | 0.03 | 84 | 1006.8 |
| 20260902155537 | 59 | 149 | 2.6 | 6.1 | 0.02 | 0.02 | 0.02 | 82 | 1006.8 |
| 20260902155036 | 59 | 235 | 2.6 | 5.2 | 0.01 | 0.01 | 0.01 | 81 | 1007.0 |
| 20260902154535 | 60 | 191 | 3.5 | 6.1 | 0.00 | 0.00 | 0.00 | 79 | 1006.9 |
| 20260902154034 | 60 | 224 | 2.6 | 6.1 | 0.00 | 0.00 | 0.00 | 78 | 1006.9 |
| 20260902153534 | 60 | 201 | 2.6 | 7.8 | 0.00 | 0.00 | 0.00 | 78 | 1006.9 |
| 20260902153035 | 60 | 232 | 1.7 | 7.8 | 0.00 | 0.00 | 0.00 | 78 | 1006.8 |
| 20260902152535 | 60 | 186 | 1.7 | 3.5 | 0.00 | 0.00 | 0.00 | 79 | 1006.9 |
| 20260902152032 | 60 | 231 | 0.9 | 2.6 | 0.00 | 0.00 | 0.00 | 80 | 1006.9 |
| 20260902151533 | 60 | 131 | 0.9 | 2.6 | 0.00 | 0.00 | 0.00 | 79 | 1006.9 |
| 20260902151033 | 60 | 131 | 0.9 | 1.7 | 0.00 | 0.00 | 0.00 | 78 | 1006.9 |
| 20260902150529 | 60 | 131 | 0.0 | 1.7 | 0.00 | 0.00 | 0.00 | 80 | 1006.8 |
| 20260902150032 | 60 | 131 | 0.9 | 2.6 | 0.00 | 0.00 | 0.00 | 78 | 1006.9 |
| 20260902145529 | 60 | 131 | 1.7 | 3.5 | 0.00 | 0.00 | 0.00 | 76 | 1006.9 |
| 20260902145025 | 60 | 161 | 1.7 | 3.5 | 0.00 | 0.00 | 0.00 | 77 | 1006.9 |
| 20260902144529 | 59 | 160 | 0.9 | 3.5 | 0.00 | 0.00 | 0.00 | 79 | 1007.0 |
| 20260902144501 | 59 | 158 | 0.9 | 2.6 | 0.00 | 0.00 | 0.00 | 81 | 1007.0 |
| 20260902143505 | 59 | 158 | 1.7 | 2.6 | 0.00 | 0.00 | 0.00 | 80 | 1007.1 |
| 20260902143004 | 59 | 158 | 1.7 | 3.5 | 0.00 | 0.00 | 0.00 | 80 | 1007.2 |
| 20260902142504 | 59 | 154 | 1.7 | 3.5 | 0.00 | 0.00 | 0.00 | 81 | 1007.2 |
| 20260902141956 | 59 | 139 | 1.7 | 3.5 | 0.00 | 0.00 | 0.00 | 80 | 1007.3 |
| 20260902141446 | 59 | 135 | 1.7 | 3.5 | 0.00 | 0.00 | 0.00 | 80 | 1007.3 |
| 20260902140950 | 59 | 133 | 2.6 | 4.3 | 0.00 | 0.00 | 0.00 | 79 | 1007.5 |
| 20260902140446 | 59 | 139 | 2.6 | 4.3 | 0.00 | 0.00 | 0.00 | 80 | 1007.4 |
| 20260902135945 | 59 | 134 | 2.6 | 4.3 | 0.00 | 0.00 | 0.00 | 81 | 1007.4 |
| 20260902135447 | 59 | 134 | 1.7 | 3.5 | 0.00 | 0.00 | 0.00 | 81 | 1007.4 |
| 20260902135206 | 59 | 133 | 1.7 | 3.5 | 0.00 | 0.00 | 0.00 | 82 | 1007.5 |
| 20260902134430 | 59 | 143 | 1.7 | 3.5 | 0.00 | 0.00 | 0.00 | 83 | 1007.6 |
| 20260902133921 | 58 | 130 | 0.9 | 3.5 | 0.00 | 0.00 | 0.00 | 84 | 1007.5 |
| 20260902133423 | 58 | 131 | 0.9 | 3.5 | 0.00 | 0.00 | 0.00 | 85 | 1007.6 |
| 20260902132918 | 58 | 106 | 0.0 | 2.6 | 0.00 | 0.00 | 0.00 | 87 | 1007.7 |
| 20260902132418 | 57 | 129 | 0.0 | 1.7 | 0.00 | 0.00 | 0.00 | 88 | 1007.8 |
| 20260902131914 | 58 | 129 | 1.7 | 3.5 | 0.00 | 0.00 | 0.00 | 86 | 1007.8 |
| 20260902131407 | 58 | 129 | 2.6 | 4.3 | 0.00 | 0.00 | 0.00 | 86 | 1007.9 |
| 20260902130903 | 57 | 147 | 1.7 | 4.3 | 0.00 | 0.00 | 0.00 | 88 | 1007.9 |
| 20260902130402 | 57 | 143 | 0.9 | 2.6 | 0.00 | 0.00 | 0.00 | 90 | 1008.0 |
| 20260902125900 | 57 | 143 | 0.0 | 1.7 | 0.00 | 0.00 | 0.00 | 90 | 1008.1 |
| 20260902125622 | 57 | 143 | 0.0 | 0.0 | 0.00 | 0.00 | 0.00 | 90 | 1008.2 |
| 20260902124900 | 57 | 143 | 0.0 | 0.9 | 0.00 | 0.00 | 0.00 | 90 | 1008.2 |
| 20260902124352 | 57 | 143 | 0.0 | 0.9 | 0.00 | 0.00 | 0.00 | 90 | 1008.2 |
| 20260902123853 | 57 | 143 | 0.0 | 0.9 | 0.00 | 0.00 | 0.00 | 90 | 1008.3 |
| 20260902123832 | 57 | 143 | 0.0 | 1.7 | 0.00 | 0.00 | 0.00 | 90 | 1008.4 |
| 20260902122832 | 57 | 143 | 0.0 | 1.7 | 0.00 | 0.00 | 0.00 | 90 | 1008.4 |
| 20260902122324 | 57 | 143 | 0.0 | 0.9 | 0.00 | 0.00 | 0.00 | 90 | 1008.5 |
| 20260902122313 | 57 | 143 | 0.0 | 0.9 | 0.00 | 0.00 | 0.00 | 90 | 1008.5 |
| 20260902121317 | 57 | 143 | 0.0 | 0.9 | 0.00 | 0.00 | 0.00 | 90 | 1008.6 |
| 20260902121302 | 57 | 143 | 0.0 | 0.9 | 0.00 | 0.00 | 0.00 | 90 | 1008.7 |
| 20260902120305 | 57 | 143 | 0.0 | 1.7 | 0.00 | 0.00 | 0.00 | 90 | 1008.7 |
| 20260902115748 | 57 | 143 | 0.9 | 1.7 | 0.00 | 0.00 | 0.00 | 90 | 1008.8 |
| 20260902115236 | 57 | 143 | 0.0 | 1.7 | 0.00 | 0.00 | 0.00 | 91 | 1008.9 |
| 20260902114734 | 57 | 143 | 0.0 | 0.0 | 0.00 | 0.00 | 0.00 | 91 | 1009.0 |
| 20260902114231 | 57 | 143 | 0.0 | 0.0 | 0.00 | 0.00 | 0.00 | 91 | 1008.9 |
| 20260902113731 | 57 | 143 | 0.0 | 0.0 | 0.00 | 0.00 | 0.00 | 91 | 1009.0 |
| 20260902113217 | 57 | 143 | 0.0 | 0.0 | 0.00 | 0.00 | 0.00 | 91 | 1009.0 |
| 20260902112708 | 57 | 143 | 0.0 | 0.0 | 0.00 | 0.00 | 0.00 | 91 | 1009.1 |
| 20260902112201 | 57 | 143 | 0.0 | 0.0 | 0.00 | 0.00 | 0.00 | 93 | 1009.1 |
| 20260902111912 | 57 | 143 | 0.0 | 0.0 | 0.00 | 0.00 | 0.00 | 93 | 1009.1 |
| 20260902111142 | 57 | 143 | 0.0 | 0.0 | 0.00 | 0.00 | 0.00 | 93 | 1009.1 |
| 20260902110642 | 56 | 143 | 0.0 | 0.0 | 0.00 | 0.00 | 0.00 | 93 | 1009.3 |
| 20260902110142 | 57 | 143 | 0.0 | 0.0 | 0.00 | 0.00 | 0.00 | 92 | 1009.4 |
| 20260902105627 | 57 | 143 | 0.0 | 0.0 | 0.00 | 0.00 | 0.00 | 91 | 1009.4 |
| 20260902105107 | 56 | 143 | 0.0 | 0.0 | 0.00 | 0.00 | 0.00 | 91 | 1009.5 |
| 20260902104603 | 56 | 143 | 0.0 | 0.0 | 0.00 | 0.00 | 0.00 | 91 | 1009.6 |
| 20260902104315 | 56 | 143 | 0.0 | 0.0 | 0.00 | 0.00 | 0.00 | 91 | 1009.7 |
| 20260902103539 | 56 | 143 | 0.0 | 0.0 | 0.00 | 0.00 | 0.00 | 90 | 1009.6 |
| 20260902103255 | 56 | 143 | 0.0 | 0.0 | 0.00 | 0.00 | 0.00 | 90 | 1009.7 |
| 20260902102531 | 56 | 143 | 0.0 | 0.0 | 0.00 | 0.00 | 0.00 | 90 | 1009.8 |
| 20260902102020 | 56 | 143 | 0.0 | 0.0 | 0.00 | 0.00 | 0.00 | 91 | 1009.8 |
| 20260902101519 | 56 | 143 | 0.0 | 0.0 | 0.00 | 0.00 | 0.00 | 90 | 1009.9 |
| 20260902101017 | 56 | 143 | 0.0 | 0.0 | 0.00 | 0.00 | 0.00 | 90 | 1009.8 |
| 20260902100515 | 56 | 143 | 0.0 | 0.0 | 0.00 | 0.00 | 0.00 | 90 | 1009.9 |
| 20260902100006 | 56 | 143 | 0.0 | 0.0 | 0.00 | 0.00 | 0.00 | 89 | 1009.9 |
| 20260902095503 | 56 | 143 | 0.0 | 1.7 | 0.00 | 0.00 | 0.00 | 89 | 1009.9 |
| 20260902095006 | 56 | 143 | 0.9 | 1.7 | 0.00 | 0.00 | 0.00 | 88 | 1010.0 |
| 20260902094454 | 56 | 143 | 0.9 | 1.7 | 0.00 | 0.00 | 0.00 | 88 | 1010.1 |
| 20260902093952 | 56 | 143 | 0.9 | 1.7 | 0.00 | 0.00 | 0.00 | 88 | 1010.2 |
| 20260902093450 | 56 | 143 | 0.9 | 2.6 | 0.00 | 0.00 | 0.00 | 89 | 1010.3 |
| 20260902092950 | 56 | 143 | 0.9 | 2.6 | 0.00 | 0.00 | 0.00 | 89 | 1010.4 |
| 20260902092447 | 56 | 143 | 0.9 | 2.6 | 0.00 | 0.00 | 0.00 | 90 | 1010.5 |
| 20260902091942 | 56 | 143 | 0.9 | 2.6 | 0.00 | 0.00 | 0.00 | 89 | 1010.6 |
| 20260902091442 | 56 | 143 | 0.9 | 1.7 | 0.00 | 0.00 | 0.00 | 89 | 1010.6 |
| 20260902090946 | 56 | 143 | 0.9 | 1.7 | 0.00 | 0.00 | 0.00 | 89 | 1010.6 |
| 20260902090651 | 56 | 143 | 0.9 | 2.6 | 0.00 | 0.00 | 0.00 | 89 | 1010.6 |
| 20260902085926 | 56 | 143 | 1.7 | 2.6 | 0.00 | 0.00 | 0.00 | 90 | 1010.6 |
| 20260902085427 | 56 | 143 | 0.9 | 2.6 | 0.00 | 0.00 | 0.00 | 90 | 1010.7 |
| 20260902085410 | 56 | 143 | 0.9 | 2.6 | 0.00 | 0.00 | 0.00 | 90 | 1010.7 |
| 20260902084419 | 55 | 143 | 0.9 | 1.7 | 0.00 | 0.00 | 0.00 | 89 | 1010.8 |
| 20260902084141 | 55 | 143 | 1.7 | 3.5 | 0.00 | 0.00 | 0.00 | 90 | 1010.8 |
| 20260902083418 | 55 | 143 | 1.7 | 3.5 | 0.00 | 0.00 | 0.00 | 90 | 1010.8 |
| 20260902082917 | 55 | 143 | 0.9 | 2.6 | 0.00 | 0.00 | 0.00 | 90 | 1010.9 |
| 20260902082412 | 54 | 143 | 0.9 | 2.6 | 0.00 | 0.00 | 0.00 | 91 | 1010.9 |
| 20260902081906 | 54 | 143 | 0.0 | 1.7 | 0.00 | 0.00 | 0.00 | 92 | 1010.9 |
| 20260902081355 | 53 | 143 | 0.9 | 2.6 | 0.00 | 0.00 | 0.00 | 92 | 1010.8 |
| 20260902080836 | 53 | 143 | 0.0 | 2.6 | 0.00 | 0.00 | 0.00 | 91 | 1010.9 |
| 20260902080338 | 54 | 143 | 0.0 | 0.9 | 0.00 | 0.00 | 0.00 | 91 | 1010.9 |
| 20260902080049 | 54 | 143 | 0.0 | 1.7 | 0.00 | 0.00 | 0.00 | 90 | 1010.9 |
| 20260902075327 | 54 | 143 | 0.9 | 2.6 | 0.00 | 0.00 | 0.00 | 89 | 1010.9 |
| 20260902074814 | 55 | 143 | 0.9 | 2.6 | 0.00 | 0.00 | 0.00 | 90 | 1010.9 |
| 20260902074534 | 55 | 136 | 0.0 | 2.6 | 0.00 | 0.00 | 0.00 | 89 | 1010.9 |
| 20260902073814 | 55 | 262 | 0.0 | 0.0 | 0.00 | 0.00 | 0.00 | 90 | 1010.9 |
| 20260902073311 | 55 | 263 | 0.0 | 0.0 | 0.00 | 0.00 | 0.00 | 90 | 1011.0 |
| 20260902072753 | 55 | 262 | 0.0 | 0.0 | 0.00 | 0.00 | 0.00 | 90 | 1011.0 |
| 20260902072254 | 55 | 262 | 0.0 | 0.0 | 0.00 | 0.00 | 0.00 | 90 | 1011.1 |
| 20260902071741 | 55 | 262 | 0.0 | 0.0 | 0.00 | 0.00 | 0.00 | 90 | 1011.1 |
| 20260902071238 | 55 | 263 | 0.0 | 0.0 | 0.00 | 0.00 | 0.00 | 90 | 1011.2 |
| 20260902070738 | 55 | 263 | 0.0 | 0.0 | 0.00 | 0.00 | 0.00 | 89 | 1011.2 |
| 20260902070234 | 56 | 263 | 0.0 | 0.0 | 0.00 | 0.00 | 0.00 | 88 | 1011.2 |
| 20260902065732 | 57 | 262 | 0.0 | 0.0 | 0.00 | 0.00 | 0.00 | 87 | 1011.2 |
| 20260902065225 | 57 | 262 | 0.0 | 0.0 | 0.00 | 0.00 | 0.00 | 87 | 1011.2 |
| 20260902064717 | 57 | 263 | 0.0 | 0.0 | 0.00 | 0.00 | 0.00 | 87 | 1011.2 |
| 20260902064211 | 57 | 263 | 0.0 | 0.0 | 0.00 | 0.00 | 0.00 | 86 | 1011.2 |
| 20260902063702 | 58 | 262 | 0.0 | 0.0 | 0.00 | 0.00 | 0.00 | 86 | 1011.2 |
| 20260902063154 | 58 | 262 | 0.0 | 0.0 | 0.00 | 0.00 | 0.00 | 85 | 1011.3 |
| 20260902062655 | 59 | 263 | 0.0 | 0.0 | 0.00 | 0.00 | 0.00 | 84 | 1011.4 |
| 20260902062407 | 59 | 263 | 0.0 | 0.0 | 0.00 | 0.00 | 0.00 | 84 | 1011.4 |
| 20260902061633 | 59 | 263 | 0.0 | 0.0 | 0.00 | 0.00 | 0.00 | 84 | 1011.5 |
| 20260902061533 | 60 | 263 | 0.0 | 0.0 | 0.00 | 0.00 | 0.00 | 83 | 1011.5 |
| 20260902061156 | 59 | 263 | 0.0 | 0.0 | 0.00 | 0.00 | 0.00 | 83 | 1011.5 |
| 20260902060104 | 60 | 263 | 0.0 | 0.0 | 0.00 | 0.00 | 0.00 | 82 | 1011.7 |
| 20260902055549 | 60 | 262 | 0.0 | 0.0 | 0.00 | 0.00 | 0.00 | 82 | 1011.7 |
| 20260902055050 | 61 | 263 | 0.0 | 0.0 | 0.00 | 0.00 | 0.00 | 82 | 1011.7 |
| 20260902054545 | 61 | 262 | 0.0 | 0.0 | 0.00 | 0.00 | 0.00 | 81 | 1011.8 |
| 20260902054041 | 61 | 262 | 0.0 | 0.9 | 0.00 | 0.00 | 0.00 | 81 | 1011.9 |
| 20260902053540 | 61 | 262 | 0.0 | 0.9 | 0.00 | 0.00 | 0.00 | 81 | 1011.9 |
| 20260902053311 | 61 | 262 | 0.0 | 1.7 | 0.00 | 0.00 | 0.00 | 80 | 1012.0 |
| 20260902052532 | 61 | 263 | 0.9 | 2.6 | 0.00 | 0.00 | 0.00 | 80 | 1012.0 |
| 20260902052257 | 61 | 263 | 2.6 | 4.3 | 0.00 | 0.00 | 0.00 | 80 | 1012.0 |
| 20260902051518 | 61 | 291 | 2.6 | 6.1 | 0.00 | 0.00 | 0.00 | 80 | 1012.0 |
| 20260902051020 | 61 | 291 | 2.6 | 6.1 | 0.00 | 0.00 | 0.00 | 81 | 1012.1 |
| 20260902050519 | 61 | 267 | 2.6 | 4.3 | 0.00 | 0.00 | 0.00 | 81 | 1012.1 |
| 20260902050018 | 61 | 254 | 1.7 | 4.3 | 0.00 | 0.00 | 0.00 | 81 | 1012.1 |
| 20260902045517 | 61 | 253 | 0.9 | 3.5 | 0.00 | 0.00 | 0.00 | 81 | 1012.1 |
| 20260902045015 | 61 | 239 | 0.9 | 2.6 | 0.00 | 0.00 | 0.00 | 81 | 1012.0 |
| 20260902044505 | 61 | 239 | 0.0 | 2.6 | 0.00 | 0.00 | 0.00 | 81 | 1012.1 |
| 20260902044008 | 60 | 239 | 0.0 | 0.9 | 0.00 | 0.00 | 0.00 | 81 | 1012.1 |
| 20260902043458 | 60 | 239 | 0.9 | 1.7 | 0.00 | 0.00 | 0.00 | 81 | 1012.1 |
| 20260902042952 | 61 | 239 | 0.9 | 1.7 | 0.00 | 0.00 | 0.00 | 81 | 1012.1 |
| 20260902042919 | 60 | 239 | 0.0 | 1.7 | 0.00 | 0.00 | 0.00 | 81 | 1012.0 |
| 20260902041942 | 60 | 239 | 1.7 | 3.5 | 0.00 | 0.00 | 0.00 | 81 | 1011.9 |
| 20260902041437 | 60 | 239 | 2.6 | 3.5 | 0.00 | 0.00 | 0.00 | 81 | 1011.9 |
| 20260902040933 | 60 | 239 | 1.7 | 3.5 | 0.00 | 0.00 | 0.00 | 81 | 1011.8 |
| 20260902040433 | 61 | 281 | 0.9 | 2.6 | 0.00 | 0.00 | 0.00 | 80 | 1011.8 |
| 20260902035929 | 61 | 281 | 0.0 | 1.7 | 0.00 | 0.00 | 0.00 | 80 | 1011.6 |
| 20260902035426 | 61 | 281 | 0.0 | 0.9 | 0.00 | 0.00 | 0.00 | 79 | 1011.5 |
| 20260902034913 | 61 | 281 | 0.0 | 0.9 | 0.00 | 0.00 | 0.00 | 79 | 1011.5 |
| 20260902034413 | 61 | 281 | 0.0 | 1.7 | 0.00 | 0.00 | 0.00 | 79 | 1011.4 |
| 20260902033904 | 62 | 281 | 0.0 | 1.7 | 0.00 | 0.00 | 0.00 | 78 | 1011.4 |
| 20260902033341 | 62 | 281 | 0.0 | 1.7 | 0.00 | 0.00 | 0.00 | 78 | 1011.4 |
| 20260902033327 | 62 | 281 | 0.9 | 1.7 | 0.00 | 0.00 | 0.00 | 78 | 1011.4 |
| 20260902032339 | 62 | 281 | 0.9 | 2.6 | 0.00 | 0.00 | 0.00 | 78 | 1011.4 |
| 20260902031834 | 62 | 281 | 0.9 | 2.6 | 0.00 | 0.00 | 0.00 | 78 | 1011.4 |
| 20260902031822 | 62 | 281 | 1.7 | 2.6 | 0.00 | 0.00 | 0.00 | 77 | 1011.3 |
| 20260902030827 | 62 | 281 | 1.7 | 3.5 | 0.00 | 0.00 | 0.00 | 77 | 1011.4 |
| 20260902030321 | 63 | 281 | 1.7 | 3.5 | 0.00 | 0.00 | 0.00 | 76 | 1011.3 |
| 20260902025819 | 63 | 281 | 1.7 | 3.5 | 0.00 | 0.00 | 0.00 | 76 | 1011.3 |
| 20260902025322 | 63 | 311 | 1.7 | 4.3 | 0.00 | 0.00 | 0.00 | 75 | 1011.4 |
| 20260902024810 | 64 | 286 | 2.6 | 5.2 | 0.00 | 0.00 | 0.00 | 75 | 1011.4 |
| 20260902024309 | 64 | 275 | 2.6 | 5.2 | 0.00 | 0.00 | 0.00 | 75 | 1011.4 |
| 20260902023808 | 64 | 291 | 2.6 | 7.0 | 0.00 | 0.00 | 0.00 | 74 | 1011.5 |
| 20260902023308 | 64 | 299 | 1.7 | 7.0 | 0.00 | 0.00 | 0.00 | 74 | 1011.5 |
| 20260902022807 | 64 | 281 | 2.6 | 4.3 | 0.00 | 0.00 | 0.00 | 73 | 1011.5 |
| 20260902022306 | 64 | 281 | 2.6 | 6.1 | 0.00 | 0.00 | 0.00 | 73 | 1011.5 |
| 20260902021810 | 64 | 260 | 1.7 | 6.1 | 0.00 | 0.00 | 0.00 | 73 | 1011.4 |
| 20260902021523 | 65 | 281 | 1.7 | 7.0 | 0.00 | 0.00 | 0.00 | 73 | 1011.4 |
| 20260902020801 | 65 | 291 | 2.6 | 7.0 | 0.00 | 0.00 | 0.00 | 72 | 1011.4 |
| 20260902020302 | 65 | 315 | 2.6 | 7.0 | 0.00 | 0.00 | 0.00 | 73 | 1011.4 |
| 20260902015803 | 65 | 341 | 3.5 | 7.0 | 0.00 | 0.00 | 0.00 | 72 | 1011.4 |
| 20260902015258 | 65 | 301 | 2.6 | 7.0 | 0.00 | 0.00 | 0.00 | 71 | 1011.4 |
| 20260902014759 | 65 | 297 | 2.6 | 5.2 | 0.00 | 0.00 | 0.00 | 71 | 1011.3 |
| 20260902014258 | 65 | 297 | 2.6 | 4.3 | 0.00 | 0.00 | 0.00 | 71 | 1011.4 |
| 20260902014021 | 65 | 281 | 2.6 | 6.1 | 0.00 | 0.00 | 0.00 | 72 | 1011.3 |
| 20260902013522 | 65 | 291 | 2.6 | 7.0 | 0.00 | 0.00 | 0.00 | 71 | 1011.4 |
| 20260902013018 | 65 | 298 | 3.5 | 7.8 | 0.00 | 0.00 | 0.00 | 71 | 1011.3 |
| 20260902012253 | 65 | 343 | 3.5 | 7.8 | 0.00 | 0.00 | 0.00 | 71 | 1011.4 |
| 20260902011753 | 65 | 328 | 3.5 | 7.0 | 0.00 | 0.00 | 0.00 | 72 | 1011.4 |
| 20260902011252 | 65 | 316 | 3.5 | 7.8 | 0.00 | 0.00 | 0.00 | 71 | 1011.3 |
| 20260902010743 | 65 | 256 | 4.3 | 8.7 | 0.00 | 0.00 | 0.00 | 71 | 1011.3 |
| 20260902010506 | 66 | 262 | 5.2 | 8.7 | 0.00 | 0.00 | 0.00 | 71 | 1011.3 |
| 20260902005744 | 66 | 263 | 5.2 | 8.7 | 0.00 | 0.00 | 0.00 | 70 | 1011.2 |
| 20260902005243 | 66 | 297 | 4.3 | 8.7 | 0.00 | 0.00 | 0.00 | 70 | 1011.1 |
| 20260902004742 | 66 | 286 | 4.3 | 9.6 | 0.00 | 0.00 | 0.00 | 69 | 1011.2 |
| 20260902004239 | 66 | 322 | 5.2 | 9.6 | 0.00 | 0.00 | 0.00 | 69 | 1011.2 |
| 20260902003739 | 67 | 291 | 5.2 | 11.3 | 0.00 | 0.00 | 0.00 | 69 | 1011.2 |
| 20260902003458 | 67 | 249 | 5.2 | 11.3 | 0.00 | 0.00 | 0.00 | 68 | 1011.2 |
| 20260902002733 | 67 | 257 | 5.2 | 8.7 | 0.00 | 0.00 | 0.00 | 67 | 1011.2 |
| 20260902002229 | 67 | 277 | 5.2 | 11.3 | 0.00 | 0.00 | 0.00 | 67 | 1011.1 |
| 20260902001727 | 67 | 272 | 5.2 | 11.3 | 0.00 | 0.00 | 0.00 | 67 | 1011.1 |
| 20260902001228 | 67 | 324 | 4.3 | 10.4 | 0.00 | 0.00 | 0.00 | 67 | 1011.0 |
| 20260902000727 | 67 | 241 | 4.3 | 10.4 | 0.00 | 0.00 | 0.00 | 67 | 1011.0 |
| 20260902000226 | 67 | 222 | 4.3 | 10.4 | 0.00 | 0.00 | 0.00 | 68 | 1011.0 |
| 20260901235943 | 67 | 235 | 5.2 | 10.4 | 0.00 | 0.00 | 0.00 | 68 | 1010.9 |
| 20260901235216 | 67 | 291 | 5.2 | 10.4 | 0.00 | 0.00 | 0.00 | 68 | 1011.0 |
| 20260901234714 | 67 | 261 | 5.2 | 7.8 | 0.00 | 0.00 | 0.00 | 66 | 1011.0 |
| 20260901234211 | 67 | 297 | 4.3 | 8.7 | 0.00 | 0.00 | 0.00 | 66 | 1010.9 |
| 20260901233711 | 67 | 270 | 4.3 | 8.7 | 0.00 | 0.00 | 0.00 | 66 | 1011.1 |
| 20260901233429 | 68 | 257 | 5.2 | 10.4 | 0.00 | 0.00 | 0.00 | 66 | 1011.0 |
| 20260901232710 | 67 | 286 | 6.1 | 10.4 | 0.00 | 0.00 | 0.00 | 67 | 1011.1 |
| 20260901232209 | 67 | 243 | 6.1 | 10.4 | 0.00 | 0.00 | 0.00 | 66 | 1011.0 |
| 20260901231928 | 67 | 332 | 6.1 | 10.4 | 0.00 | 0.00 | 0.00 | 68 | 1011.0 |
| 20260901231439 | 67 | 240 | 7.0 | 13.0 | 0.00 | 0.00 | 0.00 | 67 | 1011.1 |
| 20260901230707 | 67 | 281 | 7.0 | 13.0 | 0.00 | 0.00 | 0.00 | 67 | 1011.2 |
| 20260901230205 | 67 | 241 | 7.0 | 13.0 | 0.00 | 0.00 | 0.00 | 68 | 1011.1 |
| 20260901225707 | 67 | 245 | 7.0 | 13.0 | 0.00 | 0.00 | 0.00 | 68 | 1011.2 |
| 20260901225209 | 67 | 252 | 5.2 | 10.4 | 0.00 | 0.00 | 0.00 | 67 | 1011.2 |
| 20260901224704 | 67 | 243 | 5.2 | 10.4 | 0.00 | 0.00 | 0.00 | 67 | 1011.1 |
| 20260901224203 | 68 | 244 | 5.2 | 9.6 | 0.00 | 0.00 | 0.00 | 67 | 1011.1 |
| 20260901223703 | 68 | 264 | 4.3 | 9.6 | 0.00 | 0.00 | 0.00 | 66 | 1011.2 |
| 20260901223206 | 68 | 318 | 3.5 | 6.1 | 0.00 | 0.00 | 0.00 | 67 | 1011.3 |
| 20260901222705 | 67 | 281 | 3.5 | 5.2 | 0.00 | 0.00 | 0.00 | 67 | 1011.2 |
| 20260901222202 | 67 | 286 | 4.3 | 10.4 | 0.00 | 0.00 | 0.00 | 68 | 1011.1 |
| 20260901221705 | 66 | 291 | 6.1 | 12.2 | 0.00 | 0.00 | 0.00 | 68 | 1011.2 |
| 20260901221203 | 67 | 263 | 7.0 | 13.0 | 0.00 | 0.00 | 0.00 | 68 | 1011.2 |
| 20260901220701 | 67 | 247 | 6.1 | 11.3 | 0.00 | 0.00 | 0.00 | 65 | 1011.1 |
| 20260901220422 | 67 | 249 | 6.1 | 10.4 | 0.00 | 0.00 | 0.00 | 65 | 1011.1 |
| 20260901215657 | 67 | 286 | 5.2 | 10.4 | 0.00 | 0.00 | 0.00 | 65 | 1011.1 |
| 20260901215156 | 67 | 223 | 6.1 | 10.4 | 0.00 | 0.00 | 0.00 | 64 | 1011.0 |
| 20260901214655 | 68 | 226 | 4.3 | 10.4 | 0.00 | 0.00 | 0.00 | 64 | 1010.9 |
| 20260901214154 | 68 | 201 | 4.3 | 9.6 | 0.00 | 0.00 | 0.00 | 64 | 1011.0 |
| 20260901213654 | 67 | 211 | 5.2 | 10.4 | 0.00 | 0.00 | 0.00 | 65 | 1010.9 |
| 20260901213153 | 67 | 205 | 6.1 | 12.2 | 0.00 | 0.00 | 0.00 | 65 | 1011.0 |
| 20260901212653 | 67 | 204 | 5.2 | 12.2 | 0.00 | 0.00 | 0.00 | 64 | 1010.9 |
| 20260901212156 | 67 | 182 | 4.3 | 8.7 | 0.00 | 0.00 | 0.00 | 65 | 1011.0 |
| 20260901211655 | 66 | 193 | 5.2 | 8.7 | 0.00 | 0.00 | 0.00 | 65 | 1011.0 |
| 20260901211638 | 67 | 214 | 4.3 | 8.7 | 0.00 | 0.00 | 0.00 | 65 | 1011.1 |
| 20260901210909 | 66 | 234 | 4.3 | 9.6 | 0.00 | 0.00 | 0.00 | 65 | 1011.0 |
| 20260901210414 | 67 | 199 | 4.3 | 9.6 | 0.00 | 0.00 | 0.00 | 66 | 1011.0 |
| 20260901205648 | 67 | 243 | 3.5 | 7.8 | 0.00 | 0.00 | 0.00 | 65 | 1011.0 |
| 20260901205147 | 67 | 235 | 4.3 | 9.6 | 0.00 | 0.00 | 0.00 | 64 | 1011.0 |
| 20260901204645 | 67 | 212 | 3.5 | 9.6 | 0.00 | 0.00 | 0.00 | 65 | 1011.0 |
| 20260901204134 | 67 | 235 | 3.5 | 8.7 | 0.00 | 0.00 | 0.00 | 66 | 1011.1 |
| 20260901203850 | 67 | 249 | 4.3 | 8.7 | 0.00 | 0.00 | 0.00 | 66 | 1011.2 |
| 20260901203108 | 67 | 261 | 5.2 | 10.4 | 0.00 | 0.00 | 0.00 | 66 | 1011.2 |
| 20260901202601 | 66 | 281 | 5.2 | 10.4 | 0.00 | 0.00 | 0.00 | 65 | 1011.1 |
| 20260901202102 | 66 | 256 | 5.2 | 11.3 | 0.00 | 0.00 | 0.00 | 65 | 1011.2 |
| 20260901201604 | 67 | 257 | 6.1 | 11.3 | 0.00 | 0.00 | 0.00 | 65 | 1011.2 |
| 20260901201058 | 67 | 228 | 6.1 | 10.4 | 0.00 | 0.00 | 0.00 | 64 | 1011.3 |
| 20260901201048 | 67 | 216 | 6.1 | 10.4 | 0.00 | 0.00 | 0.00 | 63 | 1011.3 |
| 20260901200056 | 67 | 256 | 5.2 | 9.6 | 0.00 | 0.00 | 0.00 | 64 | 1011.3 |
| 20260901195554 | 66 | 231 | 6.1 | 10.4 | 0.00 | 0.00 | 0.00 | 64 | 1011.4 |
| 20260901195054 | 67 | 232 | 7.0 | 10.4 | 0.00 | 0.00 | 0.00 | 63 | 1011.3 |
| 20260901194552 | 67 | 185 | 6.1 | 11.3 | 0.00 | 0.00 | 0.00 | 62 | 1011.4 |
| 20260901194052 | 67 | 253 | 7.0 | 11.3 | 0.00 | 0.00 | 0.00 | 63 | 1011.5 |
| 20260901193551 | 67 | 204 | 7.0 | 11.3 | 0.00 | 0.00 | 0.00 | 62 | 1011.5 |